Regional Weather Roundup
Issued by NWS Raleigh/Durham, NC

Home | Current Version | Previous Version | Text Only | Print | Product List | Glossary On
Versions: 1 2 3 4 5 6 7 8 9 10 11 12 13 14 15 16 17 18 19 20 21 22 23 24 25 26 27 28 29 30 31 32 33 34 35 36 37 38 39 40 41 42 43 44 45 46 47 48 49 50
000
ASUS42 KRAH 301910
RWRRAH
NORTH CAROLINA WEATHER ROUNDUP
NATIONAL WEATHER SERVICE RALEIGH NC
300 PM EDT SUN AUG 30 2015

NOTE: "FAIR" INDICATES FEW OR NO CLOUDS BELOW 12,000 FEET WITH NO
SIGNIFICANT WEATHER AND/OR OBSTRUCTIONS TO VISIBILITY.

NCZ001-053-055-056-065-067-302000-
WESTERN NORTH CAROLINA

CITY           SKY/WX    TMP DP  RH WIND       PRES   REMARKS
ASHEVILLE      CLOUDY    74  56  53 SE7       30.21F
JEFFERSON      CLOUDY    69  58  67 CALM      30.27S
MORGANTON      CLOUDY    79  59  50 NW3       30.22F
HICKORY        CLOUDY    77  63  61 N3        30.17F
RUTHERFORDTON  CLOUDY    82  60  47 E3        30.17F
MOUNT AIRY     CLOUDY    81  64  56 W3        30.19F
BOONE          CLOUDY    69  57  65 S3        30.27F
$$

NCZ021-022-025-041-071-084-088-302000-
CENTRAL NORTH CAROLINA

CITY           SKY/WX    TMP DP  RH WIND       PRES   REMARKS
CHARLOTTE      CLOUDY    81  58  45 VRB3      30.16F
GREENSBORO     CLOUDY    81  61  50 W6        30.16F
WINSTON-SALEM  CLOUDY    80  61  52 SW3       30.18F
RALEIGH-DURHAM CLOUDY    85  58  39 SE3       30.13F
FORT BRAGG     CLOUDY    81  63  54 CALM      30.13F
FAYETTEVILLE   CLOUDY    82  62  50 SE3       30.13F
BURLINGTON     CLOUDY    83  62  49 S6        30.14F
LAURINBURG     CLOUDY    81  62  52 S8        30.15S
$$

NCZ011-015-027-028-043-044-047-080-103-302000-
NORTHEASTERN NORTH CAROLINA

CITY           SKY/WX    TMP DP  RH WIND       PRES   REMARKS
ROCKY MT-WILSO CLOUDY    90  56  31 VRB6      30.11F
GREENVILLE     CLOUDY    86  63  45 SE5       30.13F
WASHINGTON     PTSUNNY   86  62  44 NE3       30.12F
ELIZABETH CITY MOSUNNY   84  66  54 SE10      30.11F
MANTEO         CLOUDY    79  71  75 NE10      30.13S
CAPE HATTERAS  CLOUDY    82  72  71 NE7       30.11F
$$

NCZ078-087-090-091-093-098-101-302000-
SOUTHEASTERN NORTH CAROLINA

CITY           SKY/WX    TMP DP  RH WIND       PRES   REMARKS
LUMBERTON      CLOUDY    81  63  54 S5        30.13F
GOLDSBORO      CLOUDY    88  65  46 NE6       30.11F
KINSTON        CLOUDY    86  59  39 E3        30.13F
KENANSVILLE      N/A     83  61  46 SE3       30.13F
NEW BERN       PTSUNNY   85  62  46 VRB6      30.13F
CHERRY POINT     N/A     85  65  51 E3        30.13F
BEAUFORT       PTSUNNY   81  68  64 E3        30.12F
JACKSONVILLE   PTSUNNY   83  63  50 SE6       30.12F
WILMINGTON     PTSUNNY   82  63  52 SE7       30.14F
$$




USA.gov is the U.S. government's official web portal to all federal, state and local government web resources and services.